Retour au catalogue

SLS DEB

ActifLEO
NORAD 55905·DEBRIS·🇺🇸 United States

Lancé Nov 16, 2022 depuis Cape Canaveral Space Force Station

Loading…

Prochains Passages (prochaines 24 heures)

TLE

FraisSource: Space-Track

Époque: Sep 14, 2026, 16:18 UTC

1 55905U 22156E   26257.67934711  .00120303  00000-0  65228-2 0  9994
2 55905  30.4678  25.4807 0824914  61.9605 306.1946 13.79495176166481

Suivez SLS DEB en temps réel avec AllMySat

Download on the App Store